This is the latest recevied weather packets stored in our database for station/object I2HLY-4. If no packets are shown the sender has not sent any weather packets the latest 10 day(s).
| Time | Temp. | Humidity | Pressure | Rain* | Wind** | Luminosity | Snow |
|---|---|---|---|---|---|---|---|
| 1777727834 | 17.22° C | 52% | 1024.8 hPa | 0 mm | - | - | - |
| 1777726047 | 16.67° C | 51% | 1025 hPa | 0 mm | - | - | - |
| 1777725144 | 16.67° C | 52% | 1025.4 hPa | 0 mm | - | - | - |
| 1777724237 | 16.67° C | 53% | 1025.5 hPa | 0 mm | - | - | - |
| 1777723350 | 16.11° C | 53% | 1025.6 hPa | 0 mm | - | - | - |
| 1777721534 | 16.11° C | 54% | 1026 hPa | 0 mm | - | - | - |
| 1777720631 | 16.11° C | 54% | 1026.1 hPa | 0 mm | - | - | - |
| 1777719735 | 16.11° C | 53% | 1026.3 hPa | 0 mm | - | - | - |
| 1777718835 | 16.11° C | 53% | 1026.6 hPa | 0 mm | - | - | - |
| 1777717936 | 15.56° C | 53% | 1026.7 hPa | 0 mm | - | - | - |
| 1777717036 | 15° C | 53% | 1026.7 hPa | 0 mm | - | - | - |
| 1777716134 | 15° C | 54% | 1026.8 hPa | 0 mm | - | - | - |
| 1777715239 | 15° C | 53% | 1026.9 hPa | 0 mm | - | - | - |
| 1777714339 | 14.44° C | 54% | 1027 hPa | 0 mm | - | - | - |
| 1777713442 | 14.44° C | 56% | 1027 hPa | 0 mm | - | - | - |
| 1777712539 | 13.89° C | 57% | 1027.3 hPa | 0 mm | - | - | - |
| 1777711638 | 13.89° C | 59% | 1027.1 hPa | 0 mm | - | - | - |
| 1777710742 | 13.33° C | 59% | 1027.3 hPa | 0 mm | - | - | - |
| 1777709841 | 13.33° C | 60% | 1027.4 hPa | 0 mm | - | - | - |
| 1777708941 | 12.78° C | 60% | 1027.4 hPa | 0 mm | - | - | - |
| 1777708045 | 12.22° C | 63% | 1027.5 hPa | 0 mm | - | - | - |
| 1777707144 | 11.67° C | 63% | 1027.6 hPa | 0 mm | - | - | - |
| 1777706245 | 11.11° C | 65% | 1027.6 hPa | 0 mm | - | - | - |
| 1777705345 | 10° C | 72% | 1027.7 hPa | 0 mm | - | - | - |
| 1777704445 | 9.44° C | 75% | 1027.7 hPa | 0 mm | - | - | - |
* Rain latest hour (hover to see other rain measurements)
** Current wind speed in m/s (hover to see current wind gust speed)